Date String (YYYY-MM-DD hh:mm:ss) UTC,Instrument flags,Ambient pressure (hPa),Sample flow (lpm),Bypass flow (lpm),Sample temperature (°C),Ambient temperature (°C),ASC tube jacket temperature (°C),LED temperature (°C),Box temperature (°C),Sample RH (%),Span deviation,Mass concentration (μg/m³),Mass concentration (μg/m³),Mass concentration (μg/m³)
DateTimeUTC,F1_M11,P_M11,Q1_M11,Q2_M11,T1_M11,T2_M11,T3_M11,T4_M11,T5_M11,U1_M11,ZSPAN_M11,X2_M11,X0_M11,X1_M11
2023-02-13 11:00:00,,0821.1,4.94,0.00,22.2,20.2,00.0,31.2,24.0,09.1,0000.0,0004.08,0008.37,0003.70
2023-02-13 11:01:00,,0821.1,5.01,0.00,22.2,20.9,00.0,31.1,24.1,09.2,0000.0,0004.05,0008.29,0003.68
2023-02-13 11:02:00,,0821.1,5.01,0.00,22.3,22.1,00.0,31.1,24.3,09.0,0000.0,0004.01,0008.23,0003.66
2023-02-13 11:03:00,,0821.1,5.01,0.00,22.5,23.1,00.0,31.1,24.5,09.1,0000.0,0003.99,0008.19,0003.65
2023-02-13 11:04:00,,0821.1,4.98,0.00,22.5,22.8,00.0,31.2,24.6,09.1,0000.0,0003.96,0007.79,0003.60
2023-02-13 11:05:00,,0821.1,5.05,0.00,22.6,22.3,00.0,31.2,24.5,09.1,0000.0,0003.93,0007.67,0003.58
2023-02-13 11:06:00,,0821.1,4.98,0.00,22.6,22.0,00.0,31.3,24.4,08.9,0000.0,0003.84,0008.11,0003.48
2023-02-13 11:07:00,,0821.0,5.04,0.00,22.5,21.7,00.0,31.3,24.3,08.7,0000.0,0003.72,0007.95,0003.37
2023-02-13 11:08:00,,0821.0,5.02,0.00,22.5,21.4,00.0,31.3,24.3,08.9,0000.0,0003.60,0007.38,0003.27
2023-02-13 11:09:00,,0821.0,4.98,0.00,22.5,21.2,00.0,31.3,24.3,09.2,0000.0,0003.56,0007.04,0003.26
2023-02-13 11:10:00,,0821.0,5.02,0.00,22.5,21.0,00.0,31.3,24.2,09.3,0000.0,0003.59,0007.06,0003.28
2023-02-13 11:11:00,,0821.0,5.00,0.00,22.5,20.9,00.0,31.3,24.2,09.2,0000.0,0003.59,0007.03,0003.29
2023-02-13 11:12:00,,0821.0,4.99,0.00,22.4,20.7,00.0,31.3,24.1,09.0,0000.0,0003.60,0007.11,0003.30
2023-02-13 11:13:00,,0821.0,5.00,0.00,22.4,20.6,00.0,31.3,24.1,08.7,0000.0,0003.64,0007.27,0003.30
2023-02-13 11:14:00,,0820.9,4.99,0.00,22.4,20.5,00.0,31.3,24.0,08.1,0000.0,0003.62,0007.36,0003.24
2023-02-13 11:15:00,,0820.9,5.05,0.00,22.3,20.4,00.0,31.3,24.0,08.0,0000.0,0003.56,0007.30,0003.18
2023-02-13 11:16:00,,0820.9,4.95,0.00,22.3,20.3,00.0,31.2,23.9,08.1,0000.0,0003.47,0007.52,0003.10
2023-02-13 11:17:00,,0820.9,5.01,0.00,22.2,20.1,00.0,31.2,23.7,08.0,0000.0,0003.40,0006.83,0003.01
2023-02-13 11:18:00,,0820.9,5.04,0.00,22.1,20.1,00.0,31.2,23.7,08.0,0000.0,0003.35,0006.56,0002.95
2023-02-13 11:19:00,,0820.9,5.00,0.00,22.2,21.1,00.0,31.1,23.9,08.0,0000.0,0003.29,0006.15,0002.87
2023-02-13 11:20:00,,0820.9,4.96,0.00,22.3,22.3,00.0,31.1,24.2,08.0,0000.0,0003.22,0005.80,0002.75
2023-02-13 11:21:00,,0820.9,4.97,0.00,22.4,22.7,00.0,31.1,24.4,07.8,0000.0,0003.13,0005.66,0002.58
2023-02-13 11:22:00,,0820.9,5.00,0.00,22.4,22.1,00.0,31.2,24.2,07.6,0000.0,0002.97,0005.43,0002.39
2023-02-13 11:23:00,,0820.8,5.03,0.00,22.3,21.5,00.0,31.2,24.1,07.5,0000.0,0002.83,0005.71,0002.24
2023-02-13 11:24:00,,0820.9,5.00,0.00,22.3,21.0,00.0,31.2,23.9,07.4,0000.0,0002.60,0005.52,0002.06
2023-02-13 11:25:00,,0820.8,4.99,0.00,22.2,20.7,00.0,31.2,23.8,07.4,0000.0,0002.47,0005.33,0001.95
2023-02-13 11:26:00,,0820.9,4.99,0.00,22.2,20.5,00.0,31.2,23.7,07.5,0000.0,0002.35,0005.03,0001.89
2023-02-13 11:27:00,,0820.8,5.01,0.00,22.1,20.3,00.0,31.1,23.6,07.5,0000.0,0002.30,0004.69,0001.83
2023-02-13 11:28:00,,0820.8,5.02,0.00,22.1,20.1,00.0,31.1,23.6,07.5,0000.0,0002.24,0003.93,0001.73
2023-02-13 11:29:00,,0820.8,5.01,0.00,22.0,20.0,00.0,31.1,23.5,07.5,0000.0,0002.18,0004.07,0001.65
2023-02-13 11:30:00,,0820.8,5.00,0.00,22.0,19.9,00.0,31.1,23.4,07.6,0000.0,0002.11,0005.23,0001.57
2023-02-13 11:31:00,,0820.7,5.00,0.00,21.9,19.8,00.0,31.0,23.4,07.6,0000.0,0002.06,0005.34,0001.48
2023-02-13 11:32:00,,0820.7,4.98,0.00,21.9,20.7,00.0,31.0,23.6,07.6,0000.0,0002.01,0005.39,0001.40
2023-02-13 11:33:00,,0820.7,4.99,0.00,22.0,22.1,00.0,30.9,24.0,07.5,0000.0,0001.96,0005.37,0001.37
2023-02-13 11:34:00,,0820.7,4.94,0.00,22.2,23.0,00.0,31.0,24.2,07.5,0000.0,0001.94,0004.94,0001.35
2023-02-13 11:35:00,,0820.7,5.00,0.00,22.3,22.5,00.0,31.0,24.2,07.5,0000.0,0001.99,0005.00,0001.34
2023-02-13 11:36:00,,0820.6,4.99,0.00,22.2,21.8,00.0,31.1,24.1,07.6,0000.0,0001.96,0005.06,0001.34
2023-02-13 11:37:00,,0820.6,4.99,0.00,22.2,21.4,00.0,31.1,23.9,07.6,0000.0,0001.92,0004.96,0001.31
2023-02-13 11:38:00,,0820.6,5.01,0.00,22.2,21.0,00.0,31.1,23.8,07.6,0000.0,0001.87,0004.87,0001.29
2023-02-13 11:39:00,,0820.6,4.99,0.00,22.1,20.7,00.0,31.1,23.7,07.6,0000.0,0001.84,0004.83,0001.28
2023-02-13 11:40:00,,0820.6,5.01,0.00,22.1,20.5,00.0,31.1,23.7,07.6,0000.0,0001.80,0004.54,0001.26
2023-02-13 11:41:00,,0820.6,4.98,0.00,22.1,20.4,00.0,31.1,23.6,07.5,0000.0,0001.79,0003.35,0001.25
2023-02-13 11:42:00,,0820.6,5.00,0.00,22.0,20.2,00.0,31.0,23.6,07.5,0000.0,0001.76,0003.18,0001.23
2023-02-13 11:43:00,,0820.6,4.99,0.00,22.0,20.1,00.0,31.0,23.6,07.4,0000.0,0001.74,0003.14,0001.22
2023-02-13 11:44:00,,0820.6,4.99,0.00,22.0,20.0,00.0,31.0,23.5,07.4,0000.0,0001.72,0003.10,0001.21
2023-02-13 11:45:00,,0820.5,5.02,0.00,21.9,19.9,00.0,31.0,23.4,07.5,0000.0,0001.73,0003.17,0001.20
2023-02-13 11:46:00,,0820.6,4.99,0.00,21.8,19.8,00.0,30.9,23.3,07.5,0000.0,0001.66,0002.95,0001.20
2023-02-13 11:47:00,,0820.6,5.01,0.00,21.8,20.0,00.0,30.9,23.4,07.5,0000.0,0001.64,0002.79,0001.19
2023-02-13 11:48:00,,0820.5,4.98,0.00,21.9,21.3,00.0,30.9,23.7,07.5,0000.0,0001.64,0002.83,0001.18
2023-02-13 11:49:00,,0820.5,4.98,0.00,22.0,22.5,00.0,30.8,24.0,07.4,0000.0,0001.63,0002.86,0001.16
2023-02-13 11:50:00,,0820.5,4.94,0.00,22.2,22.7,00.0,30.9,24.2,07.3,0000.0,0001.61,0002.80,0001.16
2023-02-13 11:51:00,,0820.4,4.98,0.00,22.2,22.0,00.0,30.9,24.1,07.4,0000.0,0001.57,0002.76,0001.16
2023-02-13 11:52:00,,0820.4,4.97,0.00,22.2,21.5,00.0,31.0,23.9,07.4,0000.0,0001.61,0002.87,0001.17
2023-02-13 11:53:00,,0820.4,4.97,0.00,22.1,21.1,00.0,31.0,23.9,07.4,0000.0,0001.59,0002.91,0001.17
2023-02-13 11:54:00,,0820.4,5.01,0.00,22.1,20.9,00.0,31.0,23.8,07.4,0000.0,0001.58,0002.86,0001.17
2023-02-13 11:55:00,,0820.4,5.01,0.00,22.1,20.7,00.0,31.0,23.8,07.4,0000.0,0001.57,0002.85,0001.18
2023-02-13 11:56:00,,0820.4,5.02,0.00,22.1,20.6,00.0,31.0,23.8,07.9,0000.0,0001.56,0002.78,0001.18
2023-02-13 11:57:00,,0820.3,5.00,0.00,22.1,20.5,00.0,31.0,23.8,08.4,0000.0,0001.61,0002.81,0001.23
2023-02-13 11:58:00,,0820.4,4.99,0.00,22.1,20.5,00.0,31.0,23.9,08.7,0000.0,0001.70,0002.87,0001.32
2023-02-13 11:59:00,,0820.3,5.01,0.00,22.1,20.5,00.0,31.0,23.9,08.7,0000.0,0001.83,0003.05,0001.42
